This demonstration page uses our WeatherBlox Daily Observations layout. Learn more.

Left ArrowRight Arrow

28.66111, -81.36562

Hourly Observations for August 9, 2022

Temp ( °F °C ) Dew Point ( °F °C ) Humidity (%) Winds ( mph kmh ) Pressure ( in mb ) Visibility ( mi km ) Precip ( " mm )
12:53 am 00:53 Clear 79 26.1 75 23.9 88 88 Calm 30.14 1021 10 16 0.00 0.00
1:53 am 01:53 Clear 80 26.7 75 23.9 85 85 Calm 30.13 1020 10 16 0.00 0.00
2:53 am 02:53 Clear 80 26.7 75 23.9 85 85 Calm 30.11 1020 10 16 0.00 0.00
3:53 am 03:53 Clear 78 25.6 74 23.3 87 87 E 3 6 30.11 1020 10 16 0.00 0.00
4:53 am 04:53 Clear 78 25.6 74 23.3 87 87 E 7 11 30.11 1020 10 16 0.00 0.00
5:53 am 05:53 Clear 78 25.6 74 23.3 87 87 E 5 7 30.11 1020 10 16 0.00 0.00
6:53 am 06:53 Sunny 78 25.6 74 23.3 87 87 E 3 6 30.12 1020 10 16 0.00 0.00
7:53 am 07:53 Sunny 81 27.2 75 23.9 82 82 E 5 7 30.14 1021 10 16 0.00 0.00
8:53 am 08:53 Sunny 85 29.4 76 24.4 75 75 E 6 9 30.15 1021 10 16 0.00 0.00
9:53 am 09:53 Mostly Sunny 87 30.6 75 23.9 68 68 ESE 12 19 30.15 1021 10 16 0.00 0.00
10:53 am 10:53 Mostly Sunny 89 31.7 75 23.9 63 63 SE 9 15 30.16 1021 10 16 0.00 0.00
11:39 am 11:39 Sunny with Nearby Thunderstorms 90 32.2 73 22.8 58 58 ESE 5 7 30.15 1021 10 16 0.00 0.00
11:53 am 11:53 Mostly Cloudy with Nearby Thunderstorms 90 32.2 72 22.2 56 56 S 7 11 30.16 1021 10 16 0.00 0.00
12:44 pm 12:44 Mostly Cloudy with Light Rain 83 28.3 76 24.4 79 79 ESE 8 13 30.17 1022 10 16 0.14 3.56
12:53 pm 12:53 Mostly Cloudy with Nearby Thunderstorms 83 28.3 77 25 82 82 SE 10 17 30.17 1022 10 16 0.14 3.56
1:53 pm 13:53 Sunny 84 28.9 75 23.9 74 74 E 7 11 30.16 1022 10 16 0.00 0.00
2:41 pm 14:41 Sunny with Nearby Thunderstorms 84 28.9 74 23.3 72 72 E 6 9 30.13 1020 10 16 0.00 0.00
3:18 pm 15:18 Partly Cloudy with Nearby Thunderstorms 84 28.9 73 22.8 70 70 SSE 7 11 30.12 1020 10 16 0.00 0.00
3:42 pm 15:42 Mostly Sunny 84 28.9 73 22.8 70 70 Calm 30.11 1020 10 16 0.00 0.00
3:53 pm 15:53 Mostly Sunny 85 29.4 74 23.3 70 70 E 3 6 30.12 1020 10 16 0.00 0.00
4:53 pm 16:53 Sunny 85 29.4 74 23.3 70 70 SE 3 6 30.12 1020 10 16 0.00 0.00
5:53 pm 17:53 Sunny 86 30 75 23.9 70 70 E 6 9 30.11 1020 10 16 0.00 0.00
6:53 pm 18:53 Sunny 87 30.6 75 23.9 68 68 E 9 15 30.08 1019 10 16 0.00 0.00
7:53 pm 19:53 Sunny 85 29.4 74 23.3 70 70 E 8 13 30.09 1019 10 16 0.00 0.00
8:53 pm 20:53 Clear 84 28.9 75 23.9 74 74 ESE 6 9 30.11 1020 10 16 0.00 0.00
9:53 pm 21:53 Clear 83 28.3 76 24.4 79 79 SSE 3 6 30.15 1021 10 16 0.00 0.00
10:53 pm 22:53 Mostly Clear 82 27.8 76 24.4 82 82 Calm 30.17 1022 10 16 0.00 0.00
11:53 pm 23:53 Mostly Clear 81 27.2 76 24.4 85 85 Calm 30.17 1022 10 16 0.00 0.00

Powered by AerisWeather